YO2LC Weather Reports


time (UTC)temp
C
wind
direction
speed
KPH
gust
KPH
rain 1hr
cm
rain 24hr
cm
rain mn
cm
humidity
%
barometer
mb
20260503194545 9 170 0.0 0.0 0.00 0.05 0.05 68 1020.2
20260503194041 9 170 0.0 0.0 0.00 0.05 0.05 68 1020.2
20260503193536 9 170 0.0 0.0 0.00 0.05 0.05 68 1020.3
20260503193037 9 170 0.0 0.0 0.00 0.05 0.05 68 1020.3
20260503192536 9 170 0.0 0.0 0.00 0.05 0.05 68 1020.2
20260503192035 9 170 0.0 0.0 0.00 0.05 0.05 68 1020.3
20260503191534 9 170 0.0 0.0 0.00 0.05 0.05 68 1020.1
20260503191034 10 170 0.0 0.0 0.00 0.05 0.05 67 1020.1
20260503190535 10 170 0.0 0.0 0.00 0.05 0.05 67 1020.2
20260503190040 10 170 0.0 0.0 0.00 0.05 0.05 68 1020.2
20260503185532 10 170 0.0 0.0 0.00 0.05 0.05 67 1020.1
20260503185034 10 170 0.0 0.0 0.00 0.05 0.05 67 1020.0
20260503184532 10 170 0.0 0.0 0.00 0.05 0.05 66 1020.0
20260503184031 10 170 0.0 0.0 0.00 0.05 0.05 66 1019.9
20260503183530 11 170 0.0 0.0 0.00 0.05 0.05 65 1019.8
20260503183037 11 170 0.0 0.0 0.00 0.05 0.05 64 1019.8
20260503182529 11 170 0.0 0.0 0.00 0.05 0.05 63 1019.7
20260503182030 11 170 0.0 0.0 0.00 0.05 0.05 62 1019.6
20260503181546 12 170 0.0 0.0 0.00 0.05 0.05 60 1019.5
20260503181028 12 170 0.0 0.0 0.00 0.05 0.05 59 1019.4
20260503180530 12 170 0.0 0.0 0.00 0.05 0.05 58 1019.4
20260503180040 13 170 0.0 0.0 0.00 0.05 0.05 57 1019.2
20260503175529 13 170 0.0 0.0 0.00 0.05 0.05 56 1019.2
20260503175027 13 170 0.0 0.0 0.00 0.05 0.05 56 1019.2
20260503174524 14 170 0.0 0.0 0.00 0.05 0.05 55 1019.2
20260503174027 14 170 0.0 0.0 0.00 0.05 0.05 54 1019.1
20260503173523 15 170 0.0 0.0 0.00 0.05 0.05 54 1019.2
20260503173023 15 170 0.0 0.0 0.00 0.05 0.05 53 1019.2
20260503172522 16 170 0.0 0.0 0.00 0.05 0.05 51 1019.1
20260503172021 16 170 0.0 0.0 0.00 0.05 0.05 51 1019.2
20260503171525 17 170 0.0 0.0 0.00 0.05 0.05 49 1019.3
20260503171021 18 170 0.0 0.0 0.00 0.05 0.05 45 1019.3
20260503170522 18 170 0.0 0.0 0.00 0.05 0.05 44 1019.2
20260503150502 20 170 0.0 0.0 0.00 0.05 0.05 37 1019.7
20260503131028 20 170 0.0 0.0 0.00 0.05 0.05 39 1020.9
20260503130531 19 170 0.0 0.0 0.00 0.05 0.05 39 1020.7
20260503110509 18 170 0.0 0.0 0.00 0.05 0.05 40 1021.9
20260503081535 15 170 0.0 0.0 0.00 0.05 0.05 47 1023.4
20260503081035 15 170 0.0 0.0 0.00 0.05 0.05 47 1023.4
20260503080532 15 170 0.0 0.0 0.00 0.05 0.05 47 1023.4
20260503072525 14 170 0.0 0.0 0.00 0.05 0.05 51 1023.6
20260503072024 14 170 0.0 0.0 0.00 0.05 0.05 52 1023.6
20260503071522 14 170 0.0 0.0 0.00 0.05 0.05 51 1023.6
20260503071021 14 170 0.0 0.0 0.00 0.05 0.05 50 1023.6
20260503070520 14 170 0.0 0.0 0.00 0.05 0.05 50 1023.7
20260503055005 12 170 0.0 0.0 0.00 0.05 0.05 58 1023.2
20260503054507 12 170 0.0 0.0 0.00 0.05 0.05 61 1023.2
20260503054003 12 170 0.0 0.0 0.00 0.05 0.05 60 1023.1
20260503053502 12 170 0.0 0.0 0.00 0.05 0.05 62 1023.1
20260503053006 11 170 0.0 0.0 0.00 0.05 0.05 64 1023.0
20260503052559 11 170 0.0 0.0 0.00 0.05 0.05 64 1023.0
20260503052059 11 170 0.0 0.0 0.00 0.05 0.05 65 1022.9
20260503051557 11 170 0.0 0.0 0.00 0.05 0.05 65 1022.9
20260503051057 10 170 0.0 0.0 0.00 0.05 0.05 67 1022.9
20260503050557 10 170 0.0 0.0 0.00 0.05 0.05 68 1022.9
20260503050056 10 170 0.0 0.0 0.00 0.05 0.05 67 1022.9
20260503045555 10 170 0.0 0.0 0.00 0.05 0.05 68 1022.9
20260503045054 10 170 0.0 0.0 0.00 0.05 0.05 69 1022.9
20260503044611 10 170 0.0 0.0 0.00 0.05 0.05 69 1022.8
20260503044053 10 170 0.0 0.0 0.00 0.05 0.05 69 1022.6
20260503043552 9 170 0.0 0.0 0.00 0.05 0.05 70 1022.7
20260503043057 9 170 0.0 0.0 0.00 0.05 0.05 70 1022.6
20260503042551 9 170 0.0 0.0 0.00 0.05 0.05 69 1022.6
20260503042051 9 170 0.0 0.0 0.00 0.05 0.05 69 1022.6
20260503041609 9 170 0.0 0.0 0.00 0.05 0.05 70 1022.5
20260503041048 9 170 0.0 0.0 0.00 0.05 0.05 70 1022.4
20260503040549 9 170 0.0 0.0 0.00 0.05 0.05 70 1022.5
20260503040052 9 170 0.0 0.0 0.00 0.05 0.05 70 1022.4
20260503035547 9 170 0.0 0.0 0.00 0.05 0.05 70 1022.4
20260503035045 8 170 0.0 0.0 0.00 0.05 0.05 70 1022.3
20260503034545 8 170 0.0 0.0 0.00 0.05 0.05 71 1022.2
20260503034044 8 170 0.0 0.0 0.00 0.05 0.05 71 1022.1
20260503033543 8 170 0.0 0.0 0.00 0.05 0.05 71 1022.1
20260503033048 8 170 0.0 0.0 0.00 0.05 0.05 71 1022.0
20260503032546 8 170 0.0 0.0 0.00 0.05 0.05 71 1022.0
20260503032042 8 170 0.0 0.0 0.00 0.05 0.05 71 1022.0
20260503031541 8 170 0.0 0.0 0.00 0.05 0.05 71 1022.0
20260503031041 8 170 0.0 0.0 0.00 0.05 0.05 71 1021.9
20260503030538 8 170 0.0 0.0 0.00 0.05 0.05 71 1021.9
20260503030038 8 170 0.0 0.0 0.00 0.05 0.05 71 1021.7
20260503025536 8 170 0.0 0.0 0.00 0.05 0.05 71 1021.7
20260503025036 8 170 0.0 0.0 0.00 0.05 0.05 72 1021.7
20260503024538 8 170 0.0 0.0 0.00 0.05 0.05 72 1021.6
20260503024035 8 170 0.0 0.0 0.00 0.05 0.05 72 1021.6
20260503023534 8 170 0.0 0.0 0.00 0.05 0.05 73 1021.7
20260503023034 8 170 0.0 0.0 0.00 0.05 0.05 72 1021.6
20260503022533 8 170 0.0 0.0 0.00 0.05 0.05 72 1021.5
20260503022033 8 170 0.0 0.0 0.00 0.05 0.05 72 1021.4
20260503021532 8 170 0.0 0.0 0.00 0.05 0.05 71 1021.6
20260503021031 8 170 0.0 0.0 0.00 0.05 0.05 71 1021.5
20260503020531 9 170 0.0 0.0 0.00 0.05 0.05 71 1021.5
20260503020030 8 170 0.0 0.0 0.00 0.05 0.05 71 1021.3
20260503015529 9 170 0.0 0.0 0.00 0.05 0.05 71 1021.3
20260503015028 8 170 0.0 0.0 0.00 0.05 0.05 71 1021.3
20260503014530 9 170 0.0 0.0 0.00 0.05 0.05 71 1021.2
20260503014027 9 170 0.0 0.0 0.00 0.05 0.05 70 1021.0
20260503013526 9 170 0.0 0.0 0.00 0.05 0.05 71 1021.2
20260503013028 9 170 0.0 0.0 0.00 0.05 0.05 70 1021.2
20260503012525 9 170 0.0 0.0 0.00 0.05 0.05 70 1021.1
20260503012024 9 170 0.0 0.0 0.00 0.05 0.05 70 1021.0
20260503011531 9 170 0.0 0.0 0.00 0.05 0.05 70 1020.9
20260503011023 9 170 0.0 0.0 0.00 0.05 0.05 70 1021.0
20260503010522 9 170 0.0 0.0 0.00 0.05 0.05 69 1021.1
20260503010022 9 170 0.0 0.0 0.00 0.05 0.05 69 1020.8
20260503005523 9 170 0.0 0.0 0.00 0.05 0.05 70 1020.8
20260503005021 9 170 0.0 0.0 0.00 0.05 0.05 70 1020.8
20260503004520 9 170 0.0 0.0 0.00 0.05 0.05 70 1020.8
20260503004019 9 170 0.0 0.0 0.00 0.05 0.05 70 1020.7
20260503003519 9 170 0.0 0.0 0.00 0.05 0.05 71 1020.7
20260503003017 9 170 0.0 0.0 0.00 0.05 0.05 71 1020.8
20260503002517 9 170 0.0 0.0 0.00 0.05 0.05 72 1020.9
20260503002018 9 170 0.0 0.0 0.00 0.05 0.05 73 1021.0
20260503001516 9 170 0.0 0.0 0.00 0.05 0.05 73 1021.2
20260503001014 9 170 0.0 0.0 0.00 0.05 0.05 73 1021.3
20260503000514 9 170 0.0 0.0 0.00 0.05 0.05 73 1021.3
20260503000013 9 170 0.0 0.0 0.00 0.05 0.05 73 1021.3
20260502235512 9 170 0.0 0.0 0.00 0.05 0.05 73 1021.4
20260502235011 9 170 0.0 0.0 0.00 0.05 0.05 72 1021.5
20260502234528 9 170 0.0 0.0 0.00 0.05 0.05 72 1021.3
20260502234010 9 170 0.0 0.0 0.00 0.05 0.05 72 1021.3
20260502233510 10 170 0.0 0.0 0.00 0.05 0.05 72 1021.3
20260502233008 10 170 0.0 0.0 0.00 0.05 0.05 71 1021.3
20260502232510 10 170 0.0 0.0 0.00 0.05 0.05 71 1021.3
20260502232007 10 170 0.0 0.0 0.00 0.05 0.05 71 1021.3
20260502231506 10 170 0.0 0.0 0.00 0.05 0.05 70 1021.3
20260502231005 10 170 0.0 0.0 0.00 0.05 0.05 70 1021.2
20260502230503 10 170 0.0 0.0 0.00 0.05 0.05 70 1021.1
20260502230004 10 170 0.0 0.0 0.00 0.05 0.05 69 1021.1
20260502225501 10 170 0.0 0.0 0.00 0.05 0.05 69 1021.0
20260502225100 10 170 0.0 0.0 0.03 0.05 0.05 69 1021.0
20260502224600 10 170 0.0 0.0 0.03 0.05 0.05 69 1020.8
20260502224059 10 170 0.0 0.0 0.03 0.05 0.05 68 1020.8
20260502223559 10 170 0.0 0.0 0.03 0.05 0.05 68 1020.9
20260502223057 10 170 0.0 0.0 0.05 0.05 0.05 67 1020.9
20260502222557 10 170 0.0 0.0 0.05 0.05 0.05 67 1020.9
20260502222055 10 170 0.0 0.0 0.05 0.05 0.05 66 1020.9
20260502221554 11 170 0.0 0.0 0.05 0.05 0.05 65 1021.0
20260502221052 11 170 0.0 0.0 0.05 0.05 0.05 65 1020.9
20260502220555 11 170 0.0 0.0 0.05 0.05 0.05 65 1021.0
20260502220126 11 170 0.0 0.0 0.05 0.05 0.05 64 1021.0
20260502215549 11 170 0.0 0.0 0.05 0.05 0.05 64 1020.9
20260502215047 11 170 0.0 0.0 0.03 0.03 0.03 63 1020.9
20260502214547 11 170 0.0 0.0 0.03 0.03 0.03 62 1021.0
20260502214045 11 170 0.0 0.0 0.03 0.03 0.03 62 1021.0
20260502213544 11 170 0.0 0.0 0.03 0.03 0.03 62 1021.0
20260502213043 11 170 0.0 0.0 0.00 0.00 0.00 61 1021.0
20260502212541 11 170 0.0 0.0 0.00 0.00 0.00 61 1021.0
20260502212041 11 170 0.0 0.0 0.00 0.00 0.00 61 1021.1
20260502211542 11 170 0.0 0.0 0.00 0.00 0.00 61 1021.1
20260502211042 12 170 0.0 0.0 0.00 0.00 0.00 61 1021.0
20260502210539 12 170 0.0 0.0 0.00 0.00 0.00 61 1021.0
20260502210034 12 170 0.0 0.0 0.00 0.00 0.00 61 1021.0
20260502205534 12 170 0.0 0.0 0.00 0.00 0.00 62 1020.9
20260502205034 12 170 0.0 0.0 0.00 0.00 0.00 62 1021.0
20260502204533 12 170 0.0 0.0 0.00 0.00 0.00 62 1021.0
20260502204033 12 170 0.0 0.0 0.00 0.00 0.00 62 1020.9
20260502203531 13 170 0.0 0.0 0.00 0.00 0.00 62 1020.8
20260502203030 13 170 0.0 0.0 0.00 0.00 0.00 62 1020.8
20260502202530 13 170 0.0 0.0 0.00 0.00 0.00 61 1020.8
20260502202032 13 170 0.0 0.0 0.00 0.00 0.00 61 1020.6
20260502201537 13 170 0.0 0.0 0.00 0.00 0.00 60 1020.5
20260502201029 13 170 0.0 0.0 0.00 0.00 0.00 60 1020.5
20260502200528 13 170 0.0 0.0 0.00 0.00 0.00 62 1020.5
20260502200028 12 170 0.0 0.0 0.00 0.00 0.00 65 1020.5
20260502195531 12 170 0.0 0.0 0.00 0.00 0.00 69 1020.3
20260502195028 12 170 0.0 0.0 0.00 0.00 0.00 68 1020.3